GUOWANG

operational
NORAD ID: 66916 Country: Unknown
LEOCIRCULAR

关于 GUOWANG

正在加载描述...

实时位置

正在加载3D地球...

即将过境

高度历史

Altitude vs Time

uPlot chart will show altitude changes over time

两行轨道根数

1 66916U 25286B 25340.51630253 -.00000123 00000-0 17671-4 0 9993
2 66916 50.0119 142.6984 0008093 262.9615 97.0370 14.05953890 34
Epoch: Dec 6, 2025 • Age: 22 hours

当前状态

高度 882.3 km
速度 7.41 km/s
星下点 -43.95°S, 145.8°E
类型 other

大型星座

Loading constellations...